Time,TemperatureF,DewpointF,PressureIn,WindDirection,WindDirectionDegrees,WindSpeedMPH,WindSpeedGustMPH,Humidity,HourlyPrecipIn,Conditions,Clouds,dailyrainin,SoftwareType,DateUTC
2013-02-01 00:14:00,27.5,19.0,29.51,SSE,157,1.1,-999.0,70,-99.99,,,0.00,Acu-Link.com,2013-02-01 05:14:00,
2013-02-01 00:29:00,27.5,19.0,29.52,ENE,67,2.2,-999.0,70,-99.99,,,0.00,Acu-Link.com,2013-02-01 05:29:00,
2013-02-01 00:44:00,27.1,18.6,29.52,WNW,292,4.7,-999.0,70,-99.99,,,0.00,Acu-Link.com,2013-02-01 05:44:00,
2013-02-01 00:59:00,27.5,18.7,29.52,SSW,202,1.7,-999.0,69,-99.99,,,0.00,Acu-Link.com,2013-02-01 05:59:00,
2013-02-01 01:14:00,27.0,18.5,29.52,SSE,157,4.7,-999.0,70,-99.99,,,0.00,Acu-Link.com,2013-02-01 06:14:00,
2013-02-01 01:29:00,26.8,18.7,29.52,ESE,112,2.7,-999.0,71,-99.99,,,0.00,Acu-Link.com,2013-02-01 06:29:00,
2013-02-01 01:45:00,26.6,18.8,29.53,South,180,2.7,-999.0,72,-99.99,,,0.00,Acu-Link.com,2013-02-01 06:45:00,
2013-02-01 02:00:00,26.4,18.6,29.52,SW,225,2.2,-999.0,72,-99.99,,,0.00,Acu-Link.com,2013-02-01 07:00:00,
2013-02-01 02:15:00,25.9,18.5,29.52,South,180,3.2,-999.0,73,-99.99,,,0.00,Acu-Link.com,2013-02-01 07:15:00,
2013-02-01 02:30:00,25.5,18.4,29.52,West,270,1.7,-999.0,74,-99.99,,,0.00,Acu-Link.com,2013-02-01 07:30:00,
2013-02-01 02:45:00,25.5,17.8,29.52,SSW,202,1.1,-999.0,72,-99.99,,,0.00,Acu-Link.com,2013-02-01 07:45:00,
2013-02-01 03:00:00,25.3,18.2,29.52,SE,135,3.2,-999.0,74,-99.99,,,0.00,Acu-Link.com,2013-02-01 08:00:00,
2013-02-01 03:15:00,25.0,17.9,29.50,WSW,247,2.7,-999.0,74,-99.99,,,0.00,Acu-Link.com,2013-02-01 08:15:00,
2013-02-01 03:30:00,25.5,18.1,29.51,WNW,292,0.0,-999.0,73,-99.99,,,0.00,Acu-Link.com,2013-02-01 08:30:00,
2013-02-01 03:45:00,25.7,17.9,29.52,WSW,247,1.7,-999.0,72,-99.99,,,0.00,Acu-Link.com,2013-02-01 08:45:00,
2013-02-01 04:01:00,25.2,17.8,29.52,East,90,2.2,-999.0,73,-99.99,,,0.00,Acu-Link.com,2013-02-01 09:01:00,
2013-02-01 04:17:00,25.2,17.8,29.51,West,270,0.0,-999.0,73,-99.99,,,0.00,Acu-Link.com,2013-02-01 09:17:00,
2013-02-01 04:32:00,25.7,17.9,29.51,SW,225,3.7,-999.0,72,-99.99,,,0.00,Acu-Link.com,2013-02-01 09:32:00,
2013-02-01 04:47:00,25.7,17.9,29.52,East,90,1.1,-999.0,72,-99.99,,,0.00,Acu-Link.com,2013-02-01 09:47:00,
2013-02-01 05:02:00,25.5,18.1,29.52,SW,225,1.1,-999.0,73,-99.99,,,0.00,Acu-Link.com,2013-02-01 10:02:00,
2013-02-01 05:17:00,25.7,18.6,29.52,North,0,2.2,-999.0,74,-99.99,,,0.00,Acu-Link.com,2013-02-01 10:17:00,
2013-02-01 05:32:00,25.5,18.4,29.53,South,180,0.0,-999.0,74,-99.99,,,0.00,Acu-Link.com,2013-02-01 10:32:00,
2013-02-01 05:47:00,25.7,18.6,29.54,SW,225,2.7,-999.0,74,-99.99,,,0.00,Acu-Link.com,2013-02-01 10:47:00,
2013-02-01 06:02:00,26.1,18.7,29.54,SSE,157,2.2,-999.0,73,-99.99,,,0.00,Acu-Link.com,2013-02-01 11:02:00,
2013-02-01 06:17:00,26.1,19.0,29.54,SSW,202,0.0,-999.0,74,-99.99,,,0.00,Acu-Link.com,2013-02-01 11:17:00,
2013-02-01 06:33:00,26.1,19.0,29.54,South,180,0.0,-999.0,74,-99.99,,,0.00,Acu-Link.com,2013-02-01 11:33:00,
2013-02-01 06:48:00,26.2,19.1,29.55,SSW,202,2.7,-999.0,74,-99.99,,,0.00,Acu-Link.com,2013-02-01 11:48:00,
2013-02-01 07:03:00,26.2,19.1,29.55,North,0,0.0,-999.0,74,-99.99,,,0.00,Acu-Link.com,2013-02-01 12:03:00,
2013-02-01 07:18:00,26.6,19.5,29.55,WSW,247,3.2,-999.0,74,-99.99,,,0.00,Acu-Link.com,2013-02-01 12:18:00,
2013-02-01 07:33:00,26.6,19.5,29.55,NNW,337,0.0,-999.0,74,-99.99,,,0.00,Acu-Link.com,2013-02-01 12:33:00,
2013-02-01 07:48:00,27.1,19.9,29.55,North,0,0.0,-999.0,74,-99.99,,,0.00,Acu-Link.com,2013-02-01 12:48:00,
2013-02-01 08:04:00,27.9,20.1,29.55,West,270,1.1,-999.0,72,-99.99,,,0.00,Acu-Link.com,2013-02-01 13:04:00,
2013-02-01 08:19:00,28.2,20.0,29.56,South,180,2.7,-999.0,71,-99.99,,,0.00,Acu-Link.com,2013-02-01 13:19:00,
2013-02-01 08:34:00,28.6,20.1,29.56,SW,225,0.0,-999.0,70,-99.99,,,0.00,Acu-Link.com,2013-02-01 13:34:00,
2013-02-01 08:49:00,28.8,19.9,29.57,WSW,247,2.7,-999.0,69,-99.99,,,0.00,Acu-Link.com,2013-02-01 13:49:00,
2013-02-01 09:04:00,28.9,17.9,29.57,ENE,67,4.2,-999.0,63,-99.99,,,0.00,Acu-Link.com,2013-02-01 14:04:00,
2013-02-01 09:19:00,29.3,17.5,29.57,South,180,3.2,-999.0,61,-99.99,,,0.00,Acu-Link.com,2013-02-01 14:19:00,
2013-02-01 09:34:00,29.7,17.2,29.58,SSE,157,2.2,-999.0,59,-99.99,,,0.00,Acu-Link.com,2013-02-01 14:34:00,
2013-02-01 09:49:00,29.5,17.3,29.59,South,180,2.2,-999.0,60,-99.99,,,0.00,Acu-Link.com,2013-02-01 14:49:00,
2013-02-01 10:04:00,29.5,17.3,29.59,ESE,112,1.7,-999.0,60,-99.99,,,0.00,Acu-Link.com,2013-02-01 15:04:00,
2013-02-01 10:19:00,29.8,17.2,29.60,WNW,292,3.2,-999.0,59,-99.99,,,0.00,Acu-Link.com,2013-02-01 15:19:00,
2013-02-01 10:35:00,29.5,17.0,29.59,SW,225,4.2,-999.0,59,-99.99,,,0.00,Acu-Link.com,2013-02-01 15:35:00,
2013-02-01 10:50:00,29.5,17.0,29.59,ESE,112,2.7,-999.0,59,-99.99,,,0.00,Acu-Link.com,2013-02-01 15:50:00,
2013-02-01 11:05:00,30.0,16.6,29.59,NNE,22,5.3,-999.0,57,-99.99,,,0.00,Acu-Link.com,2013-02-01 16:05:00,
2013-02-01 11:20:00,29.7,15.9,29.58,ESE,112,6.8,-999.0,56,-99.99,,,0.00,Acu-Link.com,2013-02-01 16:20:00,
2013-02-01 11:35:00,31.1,16.4,29.59,SSE,157,3.2,-999.0,54,-99.99,,,0.00,Acu-Link.com,2013-02-01 16:35:00,
2013-02-01 11:50:00,33.8,18.1,29.59,NE,45,6.3,-999.0,52,-99.99,,,0.00,Acu-Link.com,2013-02-01 16:50:00,
2013-02-01 12:05:00,30.9,16.2,29.58,ESE,112,1.7,-999.0,54,-99.99,,,0.00,Acu-Link.com,2013-02-01 17:05:00,
2013-02-01 12:20:00,31.3,16.6,29.58,NW,315,6.3,-999.0,54,-99.99,,,0.00,Acu-Link.com,2013-02-01 17:20:00,
2013-02-01 12:36:00,32.5,16.0,29.59,ENE,67,3.2,-999.0,50,-99.99,,,0.00,Acu-Link.com,2013-02-01 17:36:00,
2013-02-01 12:51:00,34.5,17.3,29.58,SE,135,4.2,-999.0,49,-99.99,,,0.00,Acu-Link.com,2013-02-01 17:51:00,
2013-02-01 13:06:00,32.2,14.3,29.59,SW,225,3.2,-999.0,47,-99.99,,,0.00,Acu-Link.com,2013-02-01 18:06:00,
2013-02-01 13:21:00,32.5,14.5,29.60,East,90,4.2,-999.0,47,-99.99,,,0.00,Acu-Link.com,2013-02-01 18:21:00,
2013-02-01 13:36:00,32.5,14.5,29.61,SSW,202,8.9,-999.0,47,-99.99,,,0.00,Acu-Link.com,2013-02-01 18:36:00,
2013-02-01 13:51:00,32.7,13.2,29.61,ESE,112,4.2,-999.0,44,-99.99,,,0.00,Acu-Link.com,2013-02-01 18:51:00,
2013-02-01 14:06:00,31.8,12.9,29.62,West,270,3.2,-999.0,45,-99.99,,,0.00,Acu-Link.com,2013-02-01 19:06:00,
2013-02-01 14:22:00,31.1,13.3,29.63,ENE,67,4.2,-999.0,47,-99.99,,,0.00,Acu-Link.com,2013-02-01 19:22:00,
2013-02-01 14:37:00,30.0,14.5,29.64,SSE,157,6.3,-999.0,52,-99.99,,,0.00,Acu-Link.com,2013-02-01 19:37:00,
2013-02-01 14:52:00,29.1,14.6,29.66,South,180,1.7,-999.0,54,-99.99,,,0.00,Acu-Link.com,2013-02-01 19:52:00,
2013-02-01 15:07:00,30.9,16.2,29.68,WSW,247,2.2,-999.0,54,-99.99,,,0.00,Acu-Link.com,2013-02-01 20:07:00,
2013-02-01 15:22:00,30.6,15.5,29.69,SSE,157,6.3,-999.0,53,-99.99,,,0.00,Acu-Link.com,2013-02-01 20:22:00,
2013-02-01 15:37:00,30.0,16.2,29.69,South,180,5.8,-999.0,56,-99.99,,,0.00,Acu-Link.com,2013-02-01 20:37:00,
2013-02-01 15:52:00,28.9,16.0,29.71,SW,225,4.7,-999.0,58,-99.99,,,0.00,Acu-Link.com,2013-02-01 20:52:00,
2013-02-01 16:07:00,28.9,17.5,29.72,South,180,2.7,-999.0,62,-99.99,,,0.00,Acu-Link.com,2013-02-01 21:07:00,
2013-02-01 16:22:00,27.0,22.3,29.75,South,180,3.2,-999.0,82,-99.99,,,0.00,Acu-Link.com,2013-02-01 21:22:00,
2013-02-01 16:38:00,26.2,21.8,29.75,SSW,202,3.7,-999.0,83,-99.99,,,0.00,Acu-Link.com,2013-02-01 21:38:00,
2013-02-01 16:53:00,25.7,21.0,29.76,NW,315,4.7,-999.0,82,-99.99,,,0.00,Acu-Link.com,2013-02-01 21:53:00,
2013-02-01 17:08:00,25.2,21.3,29.76,SSW,202,4.7,-999.0,85,-99.99,,,0.00,Acu-Link.com,2013-02-01 22:08:00,
2013-02-01 17:23:00,24.8,21.5,29.78,SE,135,3.7,-999.0,87,-99.99,,,0.00,Acu-Link.com,2013-02-01 22:23:00,
2013-02-01 17:38:00,25.9,21.2,29.80,WNW,292,3.7,-999.0,82,-99.99,,,0.00,Acu-Link.com,2013-02-01 22:38:00,
2013-02-01 17:53:00,25.5,20.5,29.81,NNE,22,2.2,-999.0,81,-99.99,,,0.00,Acu-Link.com,2013-02-01 22:53:00,
2013-02-01 18:08:00,25.7,21.0,29.82,South,180,1.1,-999.0,82,-99.99,,,0.00,Acu-Link.com,2013-02-01 23:08:00,
2013-02-01 18:23:00,24.6,23.6,29.83,SW,225,2.2,-999.0,96,-99.99,,,0.00,Acu-Link.com,2013-02-01 23:23:00,
2013-02-01 18:38:00,23.9,23.4,29.84,SE,135,0.0,-999.0,98,-99.99,,,0.00,Acu-Link.com,2013-02-01 23:38:00,
2013-02-01 18:54:00,23.2,22.7,29.85,SSE,157,0.0,-999.0,98,-99.99,,,0.00,Acu-Link.com,2013-02-01 23:54:00,
2013-02-01 19:09:00,22.8,22.3,29.86,SW,225,1.7,-999.0,98,-99.99,,,0.00,Acu-Link.com,2013-02-02 00:09:00,
2013-02-01 19:24:00,23.2,21.2,29.87,SSE,157,1.7,-999.0,92,-99.99,,,0.00,Acu-Link.com,2013-02-02 00:24:00,
2013-02-01 19:39:00,23.4,20.1,29.87,WSW,247,1.7,-999.0,87,-99.99,,,0.00,Acu-Link.com,2013-02-02 00:39:00,
2013-02-01 19:54:00,23.4,20.1,29.88,NNW,337,2.7,-999.0,87,-99.99,,,0.00,Acu-Link.com,2013-02-02 00:54:00,
2013-02-01 20:09:00,23.4,20.1,29.88,WSW,247,4.2,-999.0,87,-99.99,,,0.00,Acu-Link.com,2013-02-02 01:09:00,
2013-02-01 20:24:00,23.5,19.4,29.89,SSE,157,3.2,-999.0,84,-99.99,,,0.00,Acu-Link.com,2013-02-02 01:24:00,
2013-02-01 20:39:00,23.4,19.0,29.90,East,90,1.1,-999.0,83,-99.99,,,0.00,Acu-Link.com,2013-02-02 01:39:00,
2013-02-01 20:54:00,23.4,19.0,29.91,NW,315,1.1,-999.0,83,-99.99,,,0.00,Acu-Link.com,2013-02-02 01:54:00,
2013-02-01 21:10:00,23.2,18.8,29.91,NNE,22,1.7,-999.0,83,-99.99,,,0.00,Acu-Link.com,2013-02-02 02:10:00,
2013-02-01 21:25:00,22.8,18.7,29.91,South,180,2.2,-999.0,84,-99.99,,,0.00,Acu-Link.com,2013-02-02 02:25:00,
2013-02-01 21:40:00,22.8,18.7,29.92,West,270,1.1,-999.0,84,-99.99,,,0.00,Acu-Link.com,2013-02-02 02:40:00,
2013-02-01 21:55:00,22.8,18.1,29.93,West,270,3.2,-999.0,82,-99.99,,,0.00,Acu-Link.com,2013-02-02 02:55:00,
2013-02-01 22:10:00,22.8,17.3,29.94,SE,135,2.2,-999.0,79,-99.99,,,0.00,Acu-Link.com,2013-02-02 03:10:00,
2013-02-01 22:25:00,22.8,16.7,29.93,SW,225,1.7,-999.0,77,-99.99,,,0.00,Acu-Link.com,2013-02-02 03:25:00,
2013-02-01 22:40:00,22.5,16.1,29.93,ESE,112,1.7,-999.0,76,-99.99,,,0.00,Acu-Link.com,2013-02-02 03:40:00,
2013-02-01 22:55:00,21.9,15.5,29.95,ESE,112,0.0,-999.0,76,-99.99,,,0.00,Acu-Link.com,2013-02-02 03:55:00,
2013-02-01 23:10:00,21.9,14.6,29.95,North,0,2.2,-999.0,73,-99.99,,,0.00,Acu-Link.com,2013-02-02 04:10:00,
2013-02-01 23:26:00,21.9,14.3,29.95,WSW,247,2.7,-999.0,72,-99.99,,,0.00,Acu-Link.com,2013-02-02 04:26:00,
2013-02-01 23:41:00,21.7,14.1,29.96,West,270,7.3,-999.0,72,-99.99,,,0.00,Acu-Link.com,2013-02-02 04:41:00,
2013-02-01 23:56:00,21.7,13.8,29.96,SE,135,1.7,-999.0,71,-99.99,,,0.00,Acu-Link.com,2013-02-02 04:56:00,